• In Belarus
  • List of Countries
  • For 7 days
  • Water Temperature
  • Satellite Maps
  • Weather Map
  • Weather Widgets
  • user-avatar
    Login

    Hourly Weather Dudukalov

    Today, 20 May, Monday

    Time Temperature Precipitation Wind Pressure Humidity
    00:00 +16°C° 0 mm 3 mps 751 mmHg 64%
    01:00 +16°C° 0 mm 3 mps 752 mmHg 63%
    02:00 +16°C° 0 mm 3 mps 752 mmHg 62%
    03:00 +16°C° 0 mm 3 mps 751 mmHg 65%
    04:00 +17°C° 0 mm 3 mps 752 mmHg 66%
    05:00 +17°C° 0 mm 3 mps 752 mmHg 68%
    06:00 +17°C° 0 mm 4 mps 752 mmHg 69%
    07:00 +19°C° 0 mm 4 mps 753 mmHg 66%
    08:00 +20°C° 0 mm 4 mps 753 mmHg 63%
    09:00 +22°C° 0 mm 5 mps 753 mmHg 59%
    10:00 +23°C° 0 mm 5 mps 753 mmHg 56%
    11:00 +25°C° 0 mm 5 mps 753 mmHg 53%
    12:00 +26°C° 0 mm 5 mps 754 mmHg 50%
    13:00 +26°C° 0 mm 5 mps 754 mmHg 49%
    14:00 +26°C° 0 mm 5 mps 754 mmHg 49%
    15:00 +26°C° 0 mm 5 mps 754 mmHg 49%
    16:00 +25°C° 0 mm 5 mps 754 mmHg 53%
    17:00 +25°C° 0 mm 5 mps 754 mmHg 57%
    18:00 +23°C° 0 mm 5 mps 754 mmHg 61%
    19:00 +21°C° 0 mm 5 mps 754 mmHg 59%
    20:00 +19°C° 0 mm 5 mps 754 mmHg 58%
    21:00 +17°C° 0 mm 5 mps 755 mmHg 56%
    22:00 +16°C° 0 mm 5 mps 755 mmHg 56%
    23:00 +15°C° 0 mm 5 mps 755 mmHg 56%

    Tomorrow, 21 May, Tuesday

    Time Temperature Precipitation Wind Pressure Humidity
    00:00 +14°C° 0 mm 4 mps 755 mmHg 55%
    01:00 +14°C° 0 mm 4 mps 755 mmHg 55%
    02:00 +13°C° 0 mm 4 mps 755 mmHg 54%
    03:00 +13°C° 0 mm 4 mps 755 mmHg 54%
    04:00 +13°C° 0 mm 4 mps 756 mmHg 56%
    05:00 +12°C° 0 mm 4 mps 756 mmHg 58%
    06:00 +12°C° 0 mm 4 mps 756 mmHg 61%
    07:00 +14°C° 0 mm 4 mps 756 mmHg 57%
    08:00 +16°C° 0 mm 5 mps 756 mmHg 53%
    09:00 +20°C° 0 mm 6 mps 756 mmHg 49%
    10:00 +21°C° 0 mm 6 mps 756 mmHg 47%
    11:00 +22°C° 0 mm 6 mps 756 mmHg 45%
    12:00 +23°C° 0 mm 6 mps 756 mmHg 44%
    13:00 +23°C° 0 mm 6 mps 756 mmHg 44%
    14:00 +23°C° 0 mm 6 mps 756 mmHg 44%
    15:00 +24°C° 0 mm 6 mps 755 mmHg 44%
    16:00 +23°C° 0 mm 5 mps 755 mmHg 49%
    17:00 +22°C° 0 mm 5 mps 755 mmHg 53%
    18:00 +22°C° 0 mm 4 mps 755 mmHg 58%
    19:00 +20°C° 0 mm 5 mps 754 mmHg 57%
    20:00 +19°C° 0 mm 5 mps 754 mmHg 56%
    21:00 +17°C° 0 mm 6 mps 754 mmHg 55%
    22:00 +16°C° 0 mm 6 mps 754 mmHg 51%
    23:00 +16°C° 0 mm 6 mps 754 mmHg 48%

    Day after tomorrow, 22 May, Wednesday

    Time Temperature Precipitation Wind Pressure Humidity
    00:00 +16°C° 0 mm 6 mps 754 mmHg 44%
    01:00 +15°C° 0 mm 6 mps 754 mmHg 48%
    02:00 +14°C° 0 mm 5 mps 753 mmHg 53%
    03:00 +13°C° 0 mm 5 mps 753 mmHg 57%
    04:00 +13°C° 0 mm 5 mps 753 mmHg 57%
    05:00 +11°C° 0 mm 6 mps 753 mmHg 56%
    06:00 +11°C° 0 mm 6 mps 753 mmHg 56%
    07:00 +12°C° 0 mm 7 mps 753 mmHg 55%
    08:00 +14°C° 0 mm 7 mps 753 mmHg 54%
    09:00 +15°C° 0 mm 8 mps 752 mmHg 53%
    10:00 +16°C° 0 mm 8 mps 752 mmHg 53%
    11:00 +17°C° 0 mm 8 mps 752 mmHg 53%
    12:00 +17°C° 0 mm 8 mps 752 mmHg 54%
    13:00 +18°C° 0 mm 8 mps 752 mmHg 57%
    14:00 +20°C° 0 mm 7 mps 751 mmHg 60%
    15:00 +20°C° 0 mm 7 mps 751 mmHg 63%
    16:00 +19°C° 1.4 mm 6 mps 751 mmHg 73%
    17:00 +16°C° 1.4 mm 5 mps 751 mmHg 83%
    18:00 +15°C° 1.4 mm 4 mps 751 mmHg 94%
    19:00 +15°C° 0.1 mm 4 mps 751 mmHg 94%
    20:00 +16°C° 0.1 mm 3 mps 751 mmHg 95%
    21:00 +14°C° 0.1 mm 3 mps 751 mmHg 95%
    22:00 +14°C° 0.2 mm 3 mps 751 mmHg 95%
    23:00 +14°C° 0.2 mm 3 mps 750 mmHg 96%

    23 May, Thursday

    Time Temperature Precipitation Wind Pressure Humidity
    00:00 +14°C° 0.2 mm 3 mps 750 mmHg 96%
    01:00 +14°C° 0.4 mm 3 mps 750 mmHg 97%
    02:00 +14°C° 0.4 mm 3 mps 750 mmHg 97%
    03:00 +14°C° 0.4 mm 3 mps 750 mmHg 97%
    04:00 +14°C° 0 mm 4 mps 750 mmHg 96%
    05:00 +14°C° 0 mm 4 mps 750 mmHg 96%
    06:00 +14°C° 0 mm 4 mps 750 mmHg 95%
    07:00 +15°C° 0.2 mm 5 mps 750 mmHg 90%
    08:00 +16°C° 0.2 mm 5 mps 750 mmHg 85%
    09:00 +19°C° 0.2 mm 5 mps 750 mmHg 80%
    10:00 +20°C° 0.3 mm 5 mps 750 mmHg 75%
    11:00 +20°C° 0.3 mm 6 mps 750 mmHg 71%
    12:00 +21°C° 0.3 mm 6 mps 750 mmHg 66%
    13:00 +21°C° 0.9 mm 6 mps 750 mmHg 68%
    14:00 +21°C° 0.9 mm 7 mps 750 mmHg 70%
    15:00 +21°C° 0.9 mm 7 mps 750 mmHg 72%
    16:00 +20°C° 0.6 mm 6 mps 750 mmHg 75%
    17:00 +20°C° 0.6 mm 6 mps 749 mmHg 78%
    18:00 +19°C° 0.6 mm 6 mps 749 mmHg 81%
    19:00 +17°C° 0 mm 5 mps 750 mmHg 85%
    20:00 +17°C° 0 mm 4 mps 750 mmHg 89%
    21:00 +15°C° 0 mm 4 mps 750 mmHg 93%
    22:00 +14°C° 0 mm 4 mps 750 mmHg 94%
    23:00 +14°C° 0 mm 4 mps 750 mmHg 95%

    24 May, Friday

    Time Temperature Precipitation Wind Pressure Humidity
    00:00 +14°C° 0 mm 3 mps 750 mmHg 96%
    01:00 +13°C° 0 mm 3 mps 750 mmHg 96%
    02:00 +13°C° 0 mm 3 mps 750 mmHg 96%
    03:00 +13°C° 0 mm 3 mps 750 mmHg 97%
    04:00 +13°C° 0 mm 3 mps 750 mmHg 96%
    05:00 +14°C° 0 mm 4 mps 750 mmHg 95%
    06:00 +14°C° 0 mm 4 mps 750 mmHg 94%
    07:00 +17°C° 0.1 mm 4 mps 750 mmHg 89%
    08:00 +19°C° 0.1 mm 4 mps 750 mmHg 84%
    09:00 +20°C° 0.1 mm 5 mps 750 mmHg 78%
    10:00 +21°C° 0.4 mm 5 mps 750 mmHg 73%
    11:00 +23°C° 0.4 mm 5 mps 750 mmHg 67%
    12:00 +25°C° 0.4 mm 5 mps 750 mmHg 62%
    13:00 +25°C° 0.1 mm 4 mps 749 mmHg 60%
    14:00 +26°C° 0.1 mm 4 mps 749 mmHg 58%
    15:00 +26°C° 0.1 mm 4 mps 749 mmHg 55%
    16:00 +26°C° 0 mm 3 mps 749 mmHg 59%
    17:00 +25°C° 0 mm 3 mps 749 mmHg 63%
    18:00 +25°C° 0 mm 2 mps 749 mmHg 66%
    19:00 +23°C° 0 mm 2 mps 749 mmHg 71%
    20:00 +21°C° 0 mm 1 mps 749 mmHg 76%
    21:00 +19°C° 0 mm 1 mps 749 mmHg 80%
    22:00 +19°C° 0 mm 1 mps 748 mmHg 81%
    23:00 +19°C° 0 mm 1 mps 748 mmHg 82%

    25 May, Saturday

    Time Temperature Precipitation Wind Pressure Humidity
    00:00 +18°C° 0 mm 1 mps 748 mmHg 82%
    01:00 +18°C° 0 mm 1 mps 748 mmHg 84%
    02:00 +17°C° 0 mm 2 mps 747 mmHg 85%
    03:00 +17°C° 0 mm 2 mps 747 mmHg 86%
    04:00 +17°C° 0 mm 3 mps 747 mmHg 85%
    05:00 +17°C° 0 mm 3 mps 747 mmHg 85%
    06:00 +18°C° 0 mm 3 mps 747 mmHg 85%
    07:00 +19°C° 0 mm 4 mps 747 mmHg 80%
    08:00 +20°C° 0 mm 5 mps 746 mmHg 75%
    09:00 +21°C° 0 mm 5 mps 746 mmHg 70%
    10:00 +22°C° 0 mm 6 mps 745 mmHg 67%
    11:00 +23°C° 0 mm 6 mps 745 mmHg 64%
    12:00 +26°C° 0 mm 6 mps 744 mmHg 60%
    13:00 +27°C° 0 mm 6 mps 744 mmHg 58%
    14:00 +28°C° 0 mm 7 mps 743 mmHg 55%
    15:00 +29°C° 0 mm 7 mps 743 mmHg 53%
    16:00 +29°C° 0.1 mm 6 mps 743 mmHg 57%
    17:00 +29°C° 0.1 mm 5 mps 742 mmHg 61%
    18:00 +28°C° 0.1 mm 5 mps 742 mmHg 65%
    19:00 +26°C° 0.1 mm 5 mps 742 mmHg 71%
    20:00 +23°C° 0.1 mm 6 mps 742 mmHg 77%
    21:00 +21°C° 0.1 mm 6 mps 743 mmHg 82%
    22:00 +20°C° 0 mm 7 mps 743 mmHg 83%
    23:00 +18°C° 0 mm 7 mps 744 mmHg 84%
    Show more